Miscellaneous Local Product
Issued by NWS Hastings, NE

Home | Current Version | Previous Version | Graphics & Text | Print | Product List | Glossary On
Versions: 1 2 3 4 5 6 7 8 9 10 11 12 13 14 15 16 17 18 19 20 21 22 23 24 25 26 27 28 29 30 31 32 33 34 35 36 37 38 39 40 41 42 43 44 45 46 47 48 49 50
000
AXUS43 KGID 291602
MISGRI

GID CWA HOURLY WEATHER ROUNDUP
NATIONAL WEATHER SERVICE HASTINGS NE
1100 AM CDT FRI MAY 29 2015

NOTE: "FAIR" INDICATES FEW OR NO CLOUDS BELOW 12,000 FEET WITH NO
SIGNIFICANT WEATHER AND/OR OBSTRUCTIONS TO VISIBILITY.

...SOUTH CENTRAL NEBRASKA...

CITY           SKY/WX    TMP DP  RH WIND       PRES   REMARKS
GRAND ISLAND   PTSUNNY   69  59  70 NW8       29.96S
HASTINGS       PTSUNNY   67  59  75 NW10      29.97S
KEARNEY        MOSUNNY   70  55  60 N7        29.98S
ORD            MOSUNNY   68  59  73 NW14      29.97R
YORK           CLOUDY    68  59  73 NW9       29.95S
AURORA         PTSUNNY   68  62  81 NW7       29.96S
LEXINGTON      SUNNY     69  59  69 NW13      30.00S
HOLDREGE       MOSUNNY   69  54  57 NW8       29.99F
HEBRON         CLOUDY    69  58  67 W6        29.95F

...NEBRASKA PANHANDLE...

CITY           SKY/WX    TMP DP  RH WIND       PRES   REMARKS
CHADRON        CLOUDY    52  48  86 NE20G29   30.17R
ALLIANCE       LGT RAIN  56  53  90 NW7       30.12F
SCOTTSBLUFF    LGT RAIN  54  52  93 N9        30.17R
SIDNEY         CLOUDY    57  50  77 NW15      30.16S

...WESTERN AND NORTH CENTRAL NEBRASKA...

CITY           SKY/WX    TMP DP  RH WIND       PRES   REMARKS
VALENTINE      CLOUDY    54  53  97 N16G24    30.07R
AINSWORTH      CLOUDY    58  56  94 NW22      30.05R
ONEILL         CLOUDY    64  61  88 NW10      29.96R
BROKEN BOW     MOSUNNY   67  58  72 NW20      30.00R
IMPERIAL         N/A     65  54  67 N13       30.08S
NORTH PLATTE   PTSUNNY   65  55  70 NW12      30.04S
MCCOOK         MOSUNNY   68  55  63 NW13      30.03F

...EASTERN NEBRASKA...

CITY           SKY/WX    TMP DP  RH WIND       PRES   REMARKS
NORFOLK        PTSUNNY   68  60  75 NW8G18    29.92R
SO SIOUX CITY  CLOUDY    69  60  73 SW6       29.89F
TEKAMAH        CLOUDY    72  64  76 SW8       29.90F
COLUMBUS       CLOUDY    70  59  68 W5        29.94S
ALBION         PTSUNNY   68  58  72 NW12      29.94S
OMAHA EPPLEY   CLOUDY    72  63  73 SW9       29.92F
OFFUTT AFB     CLOUDY    72  63  74 SW9       29.92R
MILLARD        CLOUDY    71  62  72 SW5       29.92F
LINCOLN        CLOUDY    70  60  70 W8        29.94S
NEBRASKA CITY  CLOUDY    71  65  82 SW12      29.96R
BEATRICE       CLOUDY    69  60  72 SW6       29.96R
FALLS CITY     CLOUDY    70  66  87 S6        29.96R

...NORTHERN KANSAS...

CITY           SKY/WX    TMP DP  RH WIND       PRES   REMARKS
GOODLAND       MOSUNNY   66  53  63 N17       30.10R
HILL CITY      MOSUNNY   71  57  61 NW10      30.01S
NORTON         SUNNY     73  52  46 NW14      30.00F
PHILLIPSBURG   SUNNY     70  59  68 N7G17     29.99S
SMITH CENTER   SUNNY     68  59  73 NW7       29.98F
HAYS           PTSUNNY   70  54  56 N7        30.01R
RUSSELL        PTSUNNY   68  57  68 VRB3      29.98F
CONCORDIA      CLOUDY    68  61  78 W8        29.97R
SALINA         CLOUDY    70  61  73 SW3       29.98R
TOPEKA         LGT RAIN  69  65  86 S7        29.99R



USA.gov is the U.S. government's official web portal to all federal, state and local government web resources and services.